When you browse on this site, cookies collect data to enhance your experience and personalize the content and advertising you see.
Visit our Privacy Policy to learn more. By continuing to use the site, you agree to this use of cookies and data.
  • In Hungary
  • List of Countries
  • For 7 days
  • Water Temperature
  • Weather Map
  • News
  • Weather Widgets
  • user-avatar
    Login

    Hourly Weather San José

    Today, 19 November, Tuesday

    Time Temperature Precipitation Wind Pressure Humidity
    00:00 +19°C° 0.2 mm 1 mps 661 mmHg 97%
    01:00 +19°C° 0 mm 1 mps 661 mmHg 97%
    02:00 +19°C° 0 mm 1 mps 661 mmHg 97%
    03:00 +19°C° 0 mm 1 mps 660 mmHg 97%
    04:00 +19°C° 0 mm 1 mps 661 mmHg 96%
    05:00 +19°C° 0 mm 1 mps 661 mmHg 96%
    06:00 +19°C° 0 mm 1 mps 661 mmHg 96%
    07:00 +21°C° 0.1 mm 1 mps 662 mmHg 91%
    08:00 +22°C° 0.1 mm 1 mps 663 mmHg 87%
    09:00 +24°C° 0.1 mm 1 mps 664 mmHg 82%
    10:00 +24°C° 1 mm 1 mps 664 mmHg 84%
    11:00 +24°C° 1 mm 1 mps 663 mmHg 86%
    12:00 +24°C° 1 mm 1 mps 663 mmHg 88%
    13:00 +23°C° 1.7 mm 1 mps 662 mmHg 90%
    14:00 +23°C° 1.7 mm 1 mps 662 mmHg 92%
    15:00 +22°C° 1.7 mm 1 mps 661 mmHg 94%
    16:00 +22°C° 0.7 mm 1 mps 661 mmHg 95%
    17:00 +21°C° 0.7 mm 1 mps 661 mmHg 97%
    18:00 +20°C° 0.7 mm 1 mps 662 mmHg 98%
    19:00 +20°C° 0.1 mm 1 mps 662 mmHg 98%
    20:00 +20°C° 0.1 mm 1 mps 662 mmHg 97%
    21:00 +20°C° 0.1 mm 1 mps 663 mmHg 97%
    22:00 +20°C° 0 mm 1 mps 662 mmHg 97%
    23:00 +20°C° 0 mm 1 mps 662 mmHg 97%

    Tomorrow, 20 November, Wednesday

    Time Temperature Precipitation Wind Pressure Humidity
    00:00 +19°C° 0 mm 1 mps 662 mmHg 96%
    01:00 +19°C° 0.1 mm 1 mps 662 mmHg 96%
    02:00 +19°C° 0.1 mm 1 mps 661 mmHg 96%
    03:00 +19°C° 0.1 mm 1 mps 661 mmHg 96%
    04:00 +19°C° 0 mm 1 mps 661 mmHg 96%
    05:00 +19°C° 0 mm 1 mps 662 mmHg 96%
    06:00 +20°C° 0 mm 1 mps 662 mmHg 96%
    07:00 +21°C° 0.1 mm 1 mps 663 mmHg 91%
    08:00 +22°C° 0.1 mm 1 mps 664 mmHg 85%
    09:00 +24°C° 0.1 mm 1 mps 664 mmHg 80%
    10:00 +24°C° 0.7 mm 1 mps 664 mmHg 81%
    11:00 +24°C° 0.7 mm 1 mps 663 mmHg 81%
    12:00 +25°C° 0.7 mm 1 mps 663 mmHg 81%
    13:00 +24°C° 1.5 mm 1 mps 662 mmHg 84%
    14:00 +24°C° 1.5 mm 1 mps 662 mmHg 87%
    15:00 +23°C° 1.5 mm 1 mps 661 mmHg 90%
    16:00 +22°C° 0.7 mm 1 mps 661 mmHg 92%
    17:00 +21°C° 0.7 mm 1 mps 661 mmHg 95%
    18:00 +20°C° 0.7 mm 1 mps 661 mmHg 97%
    19:00 +20°C° 0.1 mm 1 mps 661 mmHg 97%
    20:00 +19°C° 0.1 mm 1 mps 662 mmHg 96%
    21:00 +19°C° 0.1 mm 1 mps 662 mmHg 96%
    22:00 +19°C° 0 mm 1 mps 662 mmHg 95%
    23:00 +18°C° 0 mm 1 mps 662 mmHg 95%

    Day after tomorrow, 21 November, Thursday

    Time Temperature Precipitation Wind Pressure Humidity
    00:00 +18°C° 0 mm 1 mps 661 mmHg 94%
    01:00 +18°C° 0 mm 1 mps 661 mmHg 93%
    02:00 +16°C° 0 mm 2 mps 661 mmHg 91%
    03:00 +16°C° 0 mm 2 mps 660 mmHg 90%
    04:00 +16°C° 0 mm 2 mps 661 mmHg 88%
    05:00 +16°C° 0 mm 2 mps 661 mmHg 87%
    06:00 +16°C° 0 mm 2 mps 661 mmHg 85%
    07:00 +19°C° 0 mm 1 mps 662 mmHg 76%
    08:00 +22°C° 0 mm 1 mps 663 mmHg 66%
    09:00 +25°C° 0 mm 1 mps 664 mmHg 57%
    10:00 +26°C° 0 mm 1 mps 664 mmHg 55%
    11:00 +27°C° 0 mm 1 mps 664 mmHg 54%
    12:00 +28°C° 0 mm 2 mps 664 mmHg 53%
    13:00 +27°C° 0.1 mm 2 mps 663 mmHg 59%
    14:00 +26°C° 0.1 mm 2 mps 662 mmHg 66%
    15:00 +25°C° 0.1 mm 2 mps 661 mmHg 72%
    16:00 +23°C° 0.2 mm 1 mps 661 mmHg 81%
    17:00 +22°C° 0.2 mm 1 mps 661 mmHg 90%
    18:00 +18°C° 0.2 mm 0 mps 661 mmHg 98%
    19:00 +18°C° 0.1 mm 0 mps 661 mmHg 98%
    20:00 +19°C° 0.1 mm 1 mps 662 mmHg 97%
    21:00 +19°C° 0.1 mm 1 mps 662 mmHg 96%
    22:00 +18°C° 0 mm 1 mps 662 mmHg 96%
    23:00 +18°C° 0 mm 1 mps 661 mmHg 95%

    22 November, Friday

    Time Temperature Precipitation Wind Pressure Humidity
    00:00 +18°C° 0 mm 1 mps 661 mmHg 95%
    01:00 +18°C° 0 mm 1 mps 661 mmHg 94%
    02:00 +16°C° 0 mm 1 mps 660 mmHg 94%
    03:00 +16°C° 0 mm 1 mps 660 mmHg 93%
    04:00 +16°C° 0 mm 1 mps 660 mmHg 92%
    05:00 +16°C° 0 mm 1 mps 661 mmHg 90%
    06:00 +15°C° 0 mm 1 mps 661 mmHg 89%
    07:00 +19°C° 0 mm 1 mps 662 mmHg 76%
    08:00 +22°C° 0 mm 1 mps 663 mmHg 64%
    09:00 +25°C° 0 mm 1 mps 664 mmHg 52%
    10:00 +26°C° 0 mm 1 mps 664 mmHg 51%
    11:00 +27°C° 0 mm 1 mps 664 mmHg 51%
    12:00 +27°C° 0 mm 2 mps 664 mmHg 51%
    13:00 +26°C° 0.1 mm 2 mps 663 mmHg 61%
    14:00 +25°C° 0.1 mm 1 mps 662 mmHg 70%
    15:00 +24°C° 0.1 mm 1 mps 661 mmHg 80%
    16:00 +23°C° 0.3 mm 1 mps 661 mmHg 86%
    17:00 +21°C° 0.3 mm 1 mps 661 mmHg 92%
    18:00 +18°C° 0.3 mm 0 mps 661 mmHg 98%
    19:00 +18°C° 0.1 mm 0 mps 661 mmHg 98%
    20:00 +17°C° 0.1 mm 0 mps 662 mmHg 97%
    21:00 +19°C° 0.1 mm 1 mps 662 mmHg 97%
    22:00 +19°C° 0 mm 1 mps 662 mmHg 96%
    23:00 +18°C° 0 mm 1 mps 661 mmHg 95%

    23 November, Saturday

    Time Temperature Precipitation Wind Pressure Humidity
    00:00 +18°C° 0 mm 1 mps 661 mmHg 95%
    01:00 +18°C° 0 mm 1 mps 661 mmHg 93%
    02:00 +16°C° 0 mm 1 mps 660 mmHg 92%
    03:00 +16°C° 0 mm 1 mps 660 mmHg 91%
    04:00 +16°C° 0 mm 1 mps 660 mmHg 89%
    05:00 +16°C° 0 mm 1 mps 661 mmHg 88%
    06:00 +15°C° 0 mm 2 mps 661 mmHg 87%
    07:00 +19°C° 0 mm 1 mps 662 mmHg 77%
    08:00 +22°C° 0 mm 1 mps 663 mmHg 67%
    09:00 +25°C° 0 mm 1 mps 664 mmHg 57%
    10:00 +26°C° 0 mm 1 mps 664 mmHg 56%
    11:00 +27°C° 0 mm 1 mps 664 mmHg 55%
    12:00 +28°C° 0 mm 2 mps 664 mmHg 54%
    13:00 +26°C° 0.3 mm 2 mps 663 mmHg 63%
    14:00 +25°C° 0.3 mm 1 mps 662 mmHg 73%
    15:00 +24°C° 0.3 mm 1 mps 661 mmHg 82%
    16:00 +22°C° 0.3 mm 1 mps 661 mmHg 87%
    17:00 +21°C° 0.3 mm 1 mps 661 mmHg 93%
    18:00 +20°C° 0.3 mm 1 mps 661 mmHg 98%
    19:00 +20°C° 0 mm 1 mps 661 mmHg 97%
    20:00 +19°C° 0 mm 1 mps 662 mmHg 96%
    21:00 +19°C° 0 mm 1 mps 662 mmHg 96%
    22:00 +19°C° 0 mm 1 mps 662 mmHg 95%
    23:00 +18°C° 0 mm 1 mps 662 mmHg 95%

    24 November, Sunday

    Time Temperature Precipitation Wind Pressure Humidity
    00:00 +17°C° 0 mm 2 mps 661 mmHg 95%
    01:00 +17°C° 0 mm 2 mps 661 mmHg 94%
    02:00 +17°C° 0 mm 2 mps 660 mmHg 93%
    03:00 +16°C° 0 mm 2 mps 660 mmHg 92%
    04:00 +16°C° 0 mm 2 mps 660 mmHg 92%
    05:00 +16°C° 0 mm 2 mps 661 mmHg 92%
    06:00 +16°C° 0 mm 2 mps 661 mmHg 91%
    07:00 +20°C° 0 mm 1 mps 662 mmHg 81%
    08:00 +23°C° 0 mm 1 mps 663 mmHg 70%
    09:00 +25°C° 0 mm 1 mps 664 mmHg 60%
    10:00 +26°C° 0 mm 1 mps 664 mmHg 58%
    11:00 +27°C° 0 mm 1 mps 663 mmHg 57%
    12:00 +28°C° 0 mm 2 mps 663 mmHg 55%
    13:00 +27°C° 0.2 mm 2 mps 662 mmHg 61%
    14:00 +26°C° 0.2 mm 1 mps 662 mmHg 68%
    15:00 +25°C° 0.2 mm 1 mps 661 mmHg 74%
    16:00 +23°C° 0.1 mm 1 mps 661 mmHg 82%
    17:00 +22°C° 0.1 mm 1 mps 661 mmHg 89%
    18:00 +20°C° 0.1 mm 1 mps 660 mmHg 97%
    19:00 +20°C° 0 mm 1 mps 661 mmHg 96%
    20:00 +19°C° 0 mm 1 mps 661 mmHg 96%
    21:00 +18°C° 0 mm 2 mps 661 mmHg 95%
    22:00 +17°C° 0 mm 2 mps 661 mmHg 95%
    23:00 +17°C° 0 mm 2 mps 661 mmHg 94%
    Show more